When you browse on this site, cookies collect data to enhance your experience and personalize the content and advertising you see.
Visit our Privacy Policy to learn more. By continuing to use the site, you agree to this use of cookies and data.
EN

Hourly Weather Novosadkovskiy

Today, 18 September, Friday

Time Temperature Precipitation Wind Pressure Humidity
00:00 +15°C° 0 mm 4 mps 760 mmHg 34%
01:00 +14°C° 0 mm 4 mps 759 mmHg 40%
02:00 +14°C° 0 mm 4 mps 759 mmHg 45%
03:00 +13°C° 0 mm 3 mps 759 mmHg 50%
04:00 +13°C° 0 mm 4 mps 758 mmHg 56%
05:00 +13°C° 0 mm 4 mps 758 mmHg 62%
06:00 +12°C° 0 mm 4 mps 758 mmHg 68%
07:00 +14°C° 0 mm 4 mps 757 mmHg 65%
08:00 +17°C° 0 mm 4 mps 757 mmHg 62%
09:00 +20°C° 0 mm 4 mps 757 mmHg 59%
10:00 +22°C° 0 mm 3 mps 756 mmHg 50%
11:00 +25°C° 0 mm 3 mps 756 mmHg 42%
12:00 +27°C° 0 mm 3 mps 756 mmHg 33%
13:00 +28°C° 0 mm 4 mps 755 mmHg 27%
14:00 +30°C° 0 mm 5 mps 754 mmHg 22%
15:00 +32°C° 0 mm 5 mps 754 mmHg 16%
16:00 +29°C° 0 mm 5 mps 754 mmHg 18%
17:00 +28°C° 0 mm 5 mps 754 mmHg 20%
18:00 +26°C° 0 mm 5 mps 754 mmHg 22%
19:00 +22°C° 0 mm 4 mps 755 mmHg 32%
20:00 +19°C° 0 mm 4 mps 755 mmHg 42%
21:00 +15°C° 0 mm 4 mps 756 mmHg 52%
22:00 +14°C° 0 mm 4 mps 756 mmHg 53%
23:00 +13°C° 0 mm 4 mps 756 mmHg 55%

Tomorrow, 19 September, Saturday

Time Temperature Precipitation Wind Pressure Humidity
00:00 +12°C° 0 mm 4 mps 757 mmHg 56%
01:00 +12°C° 0 mm 4 mps 757 mmHg 58%
02:00 +11°C° 0 mm 4 mps 758 mmHg 59%
03:00 +10°C° 0 mm 4 mps 758 mmHg 61%
04:00 +10°C° 0 mm 4 mps 758 mmHg 63%
05:00 +8°C° 0 mm 4 mps 758 mmHg 66%
06:00 +7°C° 0 mm 4 mps 759 mmHg 68%
07:00 +9°C° 0 mm 5 mps 759 mmHg 63%
08:00 +12°C° 0 mm 5 mps 759 mmHg 59%
09:00 +14°C° 0 mm 6 mps 759 mmHg 54%
10:00 +15°C° 0 mm 6 mps 759 mmHg 50%
11:00 +16°C° 0 mm 6 mps 759 mmHg 46%
12:00 +17°C° 0 mm 6 mps 759 mmHg 42%
13:00 +19°C° 0 mm 6 mps 759 mmHg 41%
14:00 +20°C° 0 mm 7 mps 759 mmHg 39%
15:00 +20°C° 0 mm 7 mps 759 mmHg 38%
16:00 +20°C° 0 mm 6 mps 759 mmHg 39%
17:00 +19°C° 0 mm 5 mps 760 mmHg 39%
18:00 +19°C° 0 mm 4 mps 760 mmHg 40%
19:00 +17°C° 0 mm 3 mps 760 mmHg 45%
20:00 +16°C° 0 mm 3 mps 760 mmHg 50%
21:00 +13°C° 0 mm 3 mps 760 mmHg 55%
22:00 +12°C° 0 mm 3 mps 761 mmHg 57%
23:00 +12°C° 0 mm 3 mps 761 mmHg 58%

Day after tomorrow, 20 September, Sunday

Time Temperature Precipitation Wind Pressure Humidity
00:00 +11°C° 0 mm 3 mps 761 mmHg 60%
01:00 +11°C° 0 mm 3 mps 761 mmHg 61%
02:00 +11°C° 0 mm 3 mps 761 mmHg 61%
03:00 +11°C° 0 mm 3 mps 761 mmHg 61%
04:00 +10°C° 0 mm 3 mps 761 mmHg 62%
05:00 +10°C° 0 mm 3 mps 761 mmHg 63%
06:00 +10°C° 0 mm 3 mps 761 mmHg 64%
07:00 +13°C° 0 mm 4 mps 761 mmHg 57%
08:00 +15°C° 0 mm 5 mps 761 mmHg 51%
09:00 +19°C° 0 mm 5 mps 761 mmHg 44%
10:00 +20°C° 0 mm 6 mps 761 mmHg 38%
11:00 +22°C° 0 mm 6 mps 761 mmHg 32%
12:00 +23°C° 0 mm 6 mps 761 mmHg 25%
13:00 +23°C° 0 mm 6 mps 761 mmHg 26%
14:00 +23°C° 0 mm 6 mps 761 mmHg 26%
15:00 +23°C° 0 mm 6 mps 760 mmHg 26%
16:00 +22°C° 0 mm 5 mps 761 mmHg 29%
17:00 +20°C° 0 mm 4 mps 761 mmHg 31%
18:00 +19°C° 0 mm 3 mps 761 mmHg 34%
19:00 +17°C° 0 mm 3 mps 762 mmHg 38%
20:00 +14°C° 0 mm 3 mps 762 mmHg 42%
21:00 +13°C° 0 mm 3 mps 763 mmHg 46%
22:00 +12°C° 0 mm 3 mps 763 mmHg 48%
23:00 +11°C° 0 mm 3 mps 764 mmHg 50%

21 September, Monday

Time Temperature Precipitation Wind Pressure Humidity
00:00 +10°C° 0 mm 3 mps 764 mmHg 52%
01:00 +10°C° 0 mm 3 mps 764 mmHg 54%
02:00 +9°C° 0 mm 2 mps 764 mmHg 56%
03:00 +8°C° 0 mm 2 mps 765 mmHg 58%
04:00 +8°C° 0 mm 2 mps 765 mmHg 60%
05:00 +8°C° 0 mm 2 mps 765 mmHg 61%
06:00 +7°C° 0 mm 2 mps 765 mmHg 63%
07:00 +10°C° 0 mm 2 mps 766 mmHg 54%
08:00 +13°C° 0 mm 3 mps 766 mmHg 45%
09:00 +16°C° 0 mm 3 mps 766 mmHg 36%
10:00 +18°C° 0 mm 3 mps 765 mmHg 31%
11:00 +19°C° 0 mm 3 mps 765 mmHg 27%
12:00 +21°C° 0 mm 3 mps 765 mmHg 22%
13:00 +21°C° 0 mm 2 mps 764 mmHg 20%
14:00 +23°C° 0 mm 2 mps 764 mmHg 19%
15:00 +24°C° 0 mm 2 mps 764 mmHg 17%
16:00 +21°C° 0 mm 2 mps 763 mmHg 19%
17:00 +20°C° 0 mm 3 mps 763 mmHg 21%
18:00 +18°C° 0 mm 3 mps 763 mmHg 23%
19:00 +16°C° 0 mm 3 mps 763 mmHg 27%
20:00 +14°C° 0 mm 3 mps 764 mmHg 30%
21:00 +12°C° 0 mm 3 mps 764 mmHg 34%
22:00 +11°C° 0 mm 3 mps 764 mmHg 35%
23:00 +12°C° 0 mm 2 mps 764 mmHg 36%

22 September, Tuesday

Time Temperature Precipitation Wind Pressure Humidity
00:00 +10°C° 0 mm 2 mps 764 mmHg 36%
01:00 +10°C° 0 mm 2 mps 764 mmHg 37%
02:00 +9°C° 0 mm 2 mps 764 mmHg 38%
03:00 +10°C° 0 mm 1 mps 764 mmHg 39%
04:00 +10°C° 0 mm 1 mps 764 mmHg 41%
05:00 +9°C° 0 mm 1 mps 764 mmHg 42%
06:00 +9°C° 0 mm 1 mps 764 mmHg 43%
07:00 +12°C° 0 mm 1 mps 764 mmHg 37%
08:00 +15°C° 0 mm 2 mps 765 mmHg 31%
09:00 +18°C° 0 mm 2 mps 765 mmHg 24%
10:00 +20°C° 0 mm 2 mps 765 mmHg 21%
11:00 +22°C° 0 mm 3 mps 764 mmHg 18%
12:00 +24°C° 0 mm 3 mps 764 mmHg 15%
13:00 +25°C° 0 mm 3 mps 764 mmHg 15%
14:00 +26°C° 0 mm 3 mps 764 mmHg 14%
15:00 +26°C° 0 mm 3 mps 763 mmHg 13%
16:00 +24°C° 0 mm 3 mps 763 mmHg 16%
17:00 +21°C° 0 mm 4 mps 763 mmHg 19%
18:00 +20°C° 0 mm 4 mps 763 mmHg 22%
19:00 +18°C° 0 mm 4 mps 764 mmHg 25%
20:00 +16°C° 0 mm 3 mps 764 mmHg 29%
21:00 +14°C° 0 mm 3 mps 764 mmHg 32%
22:00 +13°C° 0 mm 3 mps 764 mmHg 34%
23:00 +13°C° 0 mm 3 mps 764 mmHg 35%

23 September, Wednesday

Time Temperature Precipitation Wind Pressure Humidity
00:00 +12°C° 0 mm 3 mps 764 mmHg 36%
01:00 +12°C° 0 mm 3 mps 764 mmHg 37%
02:00 +11°C° 0 mm 3 mps 764 mmHg 38%
03:00 +11°C° 0 mm 3 mps 764 mmHg 39%
04:00 +11°C° 0 mm 3 mps 764 mmHg 38%
05:00 +10°C° 0 mm 3 mps 765 mmHg 38%
06:00 +10°C° 0 mm 3 mps 765 mmHg 38%
07:00 +13°C° 0 mm 4 mps 765 mmHg 33%
08:00 +17°C° 0 mm 4 mps 765 mmHg 27%
09:00 +20°C° 0 mm 5 mps 765 mmHg 22%
10:00 +22°C° 0 mm 5 mps 765 mmHg 20%
11:00 +25°C° 0 mm 5 mps 764 mmHg 18%
12:00 +27°C° 0 mm 6 mps 764 mmHg 16%
13:00 +27°C° 0 mm 6 mps 764 mmHg 15%
14:00 +27°C° 0 mm 6 mps 763 mmHg 15%
15:00 +28°C° 0 mm 6 mps 763 mmHg 15%
16:00 +26°C° 0 mm 5 mps 763 mmHg 17%
17:00 +23°C° 0 mm 5 mps 763 mmHg 19%
18:00 +22°C° 0 mm 4 mps 762 mmHg 21%
19:00 +20°C° 0 mm 4 mps 763 mmHg 24%
20:00 +18°C° 0 mm 4 mps 763 mmHg 27%
21:00 +17°C° 0 mm 4 mps 763 mmHg 30%
22:00 +15°C° 0 mm 4 mps 763 mmHg 34%
23:00 +15°C° 0 mm 4 mps 763 mmHg 37%
Show more